Overview Statistics Trail Chart Weather Telemetry Raw packets
 

This is the latest recevied weather packets stored in our database for station/object 4S6DRJ-13. If no packets are shown the sender has not sent any weather packets the latest 10 day(s).

<< 539 540 541 542 543 544 545 >>
Time Temp. Humidity Pressure Rain* Wind** Luminosity Snow
1787619962 25.56° C 91% 1010.2 hPa 0 mm 1.79 m/s, 129° 50 W/m² -
1787619901 25.56° C 91% 1010 hPa 0 mm 1.34 m/s, 143° 49 W/m² -
1787619841 25.56° C 91% 1010.1 hPa 0 mm 1.79 m/s, 154° 50 W/m² -
1787619779 25.56° C 91% 1010.3 hPa 0 mm 0.89 m/s, 161° 51 W/m² -
1787619718 25.56° C 91% 1010.3 hPa 0 mm 1.34 m/s, 173° 51 W/m² -
1787619657 25.56° C 91% 1010.2 hPa 0 mm 1.34 m/s, 141° 48 W/m² -
1787619596 25.56° C 92% 1010.2 hPa 0 mm 0.89 m/s, 180° 48 W/m² -
1787619535 25.56° C 91% 1010.2 hPa 0 mm 0.89 m/s, 170° 47 W/m² -
1787619474 25.56° C 92% 1010.1 hPa 0 mm 0.89 m/s, 135° 43 W/m² -
1787619413 25.56° C 92% 1010 hPa 0 mm 0.45 m/s, 107° 41 W/m² -
1787619352 25.56° C 92% 1010.2 hPa 0 mm 0.89 m/s, 117° 36 W/m² -
1787619291 25.56° C 92% 1010.1 hPa 0 mm 0.89 m/s, 158° 33 W/m² -
1787619230 25.56° C 92% 1010.3 hPa 0 mm 0.89 m/s, 166° 31 W/m² -
1787619168 25.56° C 92% 1010.2 hPa 0 mm 0.89 m/s, 161° 28 W/m² -
1787619108 25.56° C 92% 1010 hPa 0 mm 0.89 m/s, 103° 26 W/m² -
1787619047 25.56° C 92% 1010.2 hPa 0 mm 1.34 m/s, 129° 24 W/m² -
1787618986 25.56° C 92% 1010 hPa 0 mm 0.45 m/s, 135° 21 W/m² -
1787618924 25.56° C 92% 1010.2 hPa 0 mm 1.34 m/s, 97° 19 W/m² -
1787618864 25.56° C 92% 1010.1 hPa 0 mm 1.34 m/s, 133° 16 W/m² -
1787618803 25.56° C 92% 1010 hPa 0 mm 1.79 m/s, 155° 15 W/m² -
1787618742 25.56° C 92% 1009.9 hPa 0 mm 0.89 m/s, 120° 13 W/m² -
1787618681 25.56° C 92% 1010.1 hPa 0 mm 0.89 m/s, 89° 11 W/m² -
1787618620 25.56° C 92% 1009.9 hPa 0 mm 0.89 m/s, 94° 9 W/m² -
1787618559 25.56° C 92% 1010.2 hPa 0 mm 0 m/s 8 W/m² -
1787618498 25° C 92% 1010 hPa 0 mm 0 m/s 7 W/m² -

* Rain latest hour (hover to see other rain measurements)
** Current wind speed in m/s (hover to see current wind gust speed)